Simultaneous Nadir Overpasses (SNOs) Predictions

Prediction of SNOs between AQUA and GOES-15 Satellite Orbit:

Table of predicted SNOs for the next 14.0 days since TLE Epoch: 8/31/2018
Index Date Time (AQUA) AQUA Lat,Lon GOES-15 Lat,Lon Distance(km) Time Diff (sec)
1 08/31/2018 22:41:36 -0.70,-136.38 -0.40,-134.85 172.91 80
2 09/02/2018 22:29:23 -0.05,-133.42 -0.40,-134.94 173.51 80
3 09/03/2018 10:50:37 1.16,-138.57 0.39,-134.97 409.25 80
4 09/05/2018 10:38:24 0.51,-135.61 0.39,-135.05 64.24 80
5 09/07/2018 10:26:12 -0.15,-132.66 0.38,-135.12 280.16 80
6 09/07/2018 22:47:34 -0.99,-137.84 -0.38,-135.12 309.93 80
7 09/09/2018 22:35:21 -0.33,-134.88 -0.38,-135.19 34.50 80
8 09/11/2018 22:23:08 0.33,-131.92 -0.38,-135.26 378.76 80
9 09/12/2018 10:44:23 0.77,-137.08 0.37,-135.30 203.20 80
10 09/14/2018 10:32:10 0.10,-134.12 0.37,-135.36 140.33 80




NCC Satellite Simultaneous Nadir Overpasses (SNOs) Prediction Service
